[[{"header":{"parameterUnit":"m.s-1","parameterCategory":1,"la1":30.2991,"la2":30.254,"lo1":-89.0895,"lo2":-89.0444,"dy":0.0017,"dx":0.0017,"nx":28,"ny":28,"refTime":"2025-09-07T09:00:00:Z","depth":0,"parameterNumber":2,"parameterNumberName":"U-component_of_WINDS"},"data":[0,0,0,0,0,0,0,0,0,0,0,0,0,0,0,0,0,0,0,0,0,0,0,0,0,0,0,0,0,0,0,0,0,0,0,0,0,0,0,0,0,0,0,0,0,0,0,0,0,0,0,0,0,0,0,0,0,0,-6.0358,-6.0359,0,-6.0406,-6.0407,-6.0407,-6.0265,-6.0261,-6.0257,-6.0253,-6.0298,-6.0303,-6.0309,0,0,0,0,0,0,0,0,0,0,0,0,0,-6.0141,-6.0146,-6.0358,-6.0359,-6.0359,-6.0406,-6.0407,-6.0407,-6.0266,-6.0261,-6.0256,-6.0251,-6.0297,-6.0303,-6.0309,0,0,0,0,0,0,0,0,0,0,0,0,0,-6.0217,-6.0147,-6.0358,-6.0295,-6.0289,-6.0406,-6.0407,-6.0407,-6.0267,-6.0261,-6.0254,-6.0248,-6.0294,-6.0302,-6.031,-6.0489,0,0,-6.0334,-6.0337,0,0,0,0,0,0,0,0,-6.0213,-6.0225,-6.0303,-6.0299,-6.0293,-6.0323,-6.0347,-6.0435,-6.0269,-6.0276,-6.0253,-6.0245,-6.0312,-6.0318,-6.0341,-6.0491,-6.0493,-6.0335,-6.0339,-6.0343,-6.0345,0,0,0,0,0,0,0,-6.0207,-6.0222,-6.0377,-6.0305,-6.0299,-6.0263,-6.0266,-6.0363,-6.0329,-6.0274,-6.0264,-6.0272,-6.0308,-6.0334,-6.0341,-6.0493,-6.0334,-6.0341,-6.0346,-6.0349,-6.0792,-6.0798,0,0,0,0,0,0,-6.0211,-6.0218,-6.0375,-6.0378,-6.0236,-6.0272,-6.0276,-6.032,-6.0328,-6.0323,-6.0278,-6.0265,-6.0323,-6.0332,-6.0342,-6.055,-6.0343,-6.035,-6.0355,-6.0785,-6.0793,-6.0801,0,0,0,0,0,0,-6.0207,-6.0226,-6.0373,-6.0296,-6.0312,-6.0283,-6.0333,-6.0325,-6.035,-6.033,-6.0323,-6.031,-6.0318,-6.0331,-6.0453,-6.055,-6.0354,-6.0361,-6.0777,-6.0787,-6.0797,-6.0969,0,0,0,0,0,0,-6.0201,-6.0226,-6.0294,-6.0298,-6.0316,-6.0485,-6.0339,-6.033,-6.0365,-6.0349,-6.0359,-6.0355,-6.0314,-6.0442,-6.0461,-6.0557,-6.0367,-6.0768,-6.0781,-6.0794,-6.0954,-6.0984,-6.1009,0,0,0,0,0,-6.0194,-6.034,-6.0298,-6.0318,-6.0401,-6.0491,-6.0501,-6.0453,-6.0373,-6.044,-6.0428,-6.0354,-6.0537,-6.0456,-6.0476,-6.0576,-6.0761,-6.0778,-6.0793,-6.0942,-6.0978,-6.1009,0,0,0,0,0,0,-6.0345,-6.0339,-6.0292,-6.0444,-6.047,-6.0467,-6.055,-6.0493,-6.054,-6.0523,-6.046,-6.0464,-6.0597,-6.0599,-6.0509,-6.0749,-6.0635,-6.0656,-6.0742,-6.0776,-6.0803,-6.0798,-6.0374,0,0,0,0,0,-6.0397,-6.0471,-6.0461,-6.0596,-6.0611,-6.058,-6.0617,-6.0578,-6.0601,-6.061,-6.0606,-6.063,-6.0693,-6.0735,-6.0792,-6.0956,-6.0955,-6.1034,-6.1062,-6.1084,-6.1102,-6.1187,-6.1221,-6.0853,-6.0853,-6.0852,0,0,-6.0502,-6.0508,-6.0559,-6.0627,-6.0641,-6.0719,-6.0589,-6.0676,-6.0732,-6.0623,-6.0737,-6.0737,-6.0759,-6.0903,-6.0966,-6.0909,-6.1204,-6.1105,-6.1123,-6.1127,-6.1207,-6.1242,-6.1273,-6.0864,-6.0862,-6.086,0,0,-6.0733,-6.0747,-6.086,-6.0879,-6.0903,-6.0882,-6.091,-6.0917,-6.0912,-6.1027,-6.0946,-6.1012,-6.1122,-6.1141,-6.1165,-6.1408,-6.1341,-6.1429,-6.157,-6.1654,-6.1683,-6.1708,-6.1792,-6.1824,-6.1447,-6.1447,-6.1448,0,-6.0861,-6.0975,-6.0925,-6.1018,-6.105,-6.0957,-6.107,-6.109,-6.1132,-6.1155,-6.1092,-6.1228,-6.1237,-6.1383,-6.1442,-6.1466,-6.1494,-6.1425,-6.1684,-6.1708,-6.1731,-6.181,-6.1842,-6.1457,-6.1456,-6.1455,-6.1454,0,-6.113,-6.1211,-6.1299,-6.1343,-6.1386,-6.1489,-6.1453,-6.1501,-6.146,-6.1445,-6.1564,-6.1572,-6.1628,-6.1661,-6.1621,-6.1802,-6.1765,-6.1694,-6.1578,-6.1777,-6.185,-6.1881,-6.1472,-6.1468,-6.1465,-6.1463,0,0,-6.1453,-6.1471,-6.1504,-6.1522,-6.1545,-6.1606,-6.1705,-6.1762,-6.1803,-6.1837,-6.1916,-6.2013,-6.1948,-6.1976,-6.1937,-6.2012,-6.2201,-6.1931,-6.193,-6.1978,-6.2398,-6.2449,-6.2485,-6.2159,-6.2165,-6.2169,-6.2395,0,-6.1679,-6.1849,-6.1808,-6.1975,-6.2049,-6.1963,-6.2049,-6.2072,-6.2062,-6.2122,-6.211,-6.2178,-6.2088,-6.2104,-6.2174,-6.2163,-6.2284,-6.2147,-6.223,-6.2233,-6.2222,-6.2524,-6.2577,-6.279,-6.2424,-6.2429,-6.2432,0,-6.1963,-6.2009,-6.2185,-6.2196,-6.2225,-6.2303,-6.2351,-6.2411,-6.2435,-6.2422,-6.2456,-6.2403,-6.25,-6.2387,-6.2519,-6.2427,-6.2459,-6.2459,-6.2466,-6.2468,-6.2342,-6.253,-6.2857,-6.2887,-6.2477,-6.2474,-6.2471,0,-6.2178,-6.2284,-6.2402,-6.2421,-6.2438,-6.2494,-6.2504,-6.2522,-6.2559,-6.2602,-6.2625,-6.2679,-6.2707,-6.275,-6.2714,-6.2635,-6.2851,-6.2735,-6.284,-6.2841,-6.2885,-6.2882,-6.3218,-6.2914,-6.2914,-6.2913,-6.2912,0,-6.2431,-6.2541,-6.2498,-6.2571,-6.2691,-6.2644,-6.2764,-6.2764,-6.2781,-6.2851,-6.2782,-6.2849,-6.2799,-6.2861,-6.2834,-6.2946,-6.296,-6.2951,-6.2941,-6.2955,-6.2956,-6.2971,-6.2954,-6.2921,-6.2919,-6.2918,-6.2916,0,-6.2688,-6.2665,-6.2788,-6.2795,-6.2799,-6.2887,-6.2892,-6.2959,-6.2945,-6.3035,-6.3053,-6.3031,-6.3101,-6.3071,-6.3145,-6.3126,-6.3269,-6.3242,-6.3261,-6.3252,-6.3358,-6.3347,-6.3712,-6.3756,-6.3428,-6.3431,-6.3434,0,-6.2849,-6.2932,-6.2949,-6.2992,-6.3006,-6.3076,-6.3114,-6.3072,-6.3113,-6.3149,-6.3211,-6.3276,-6.3324,-6.3441,-6.3431,-6.3487,-6.3458,-6.3583,-6.3466,-6.3476,-6.3456,-6.3449,-6.3456,-6.3604,-6.3608,-6.3611,-6.3614,0,-6.3137,-6.3122,-6.3179,-6.3235,-6.3282,-6.3323,-6.3357,-6.3396,-6.3355,-6.3406,-6.3478,-6.3516,-6.3593,-6.3657,-6.3707,-6.3715,-6.3658,-6.3652,-6.3678,-6.369,-6.3696,-6.369,-6.332,-6.3642,-6.3639,-6.3637,-6.3636,-6.3634,-6.3348,-6.3417,-6.344,-6.3507,-6.3529,-6.3564,-6.3626,-6.3622,-6.3682,-6.3741,-6.3713,-6.3796,-6.3819,-6.388,-6.3897,-6.396,-6.3911,-6.3951,-6.396,-6.3969,-6.3981,-6.3691,-6.397,-6.3969,-6.3968,-6.3968,-6.3967,0,-6.3628,-6.364,-6.3702,-6.3754,-6.3807,-6.3751,-6.3787,-6.3834,-6.3908,-6.3936,-6.3986,-6.4069,-6.4132,-6.4128,-6.4186,-6.4237,-6.4212,-6.4254,-6.4247,-6.4249,-6.4024,-6.3993,-6.4273,-6.4273,-6.4273,-6.4273,-6.4273,-6.4273,-6.378,-6.3894,-6.3882,-6.4006,-6.4016,-6.4098,-6.4123,-6.4154,-6.4175,-6.4271,-6.4323,-6.4321,-6.4336,-6.4395,-6.445,-6.4447,-6.447,-6.452,-6.4508,-6.4296,-6.4265,-6.4236,-6.4207,-6.4527,-6.4527,-6.4727,-6.4729,-6.473]},{"header":{"parameterUnit":"m.s-1","parameterCategory":1,"la1":30.2991,"la2":30.254,"lo1":-89.0895,"lo2":-89.0444,"dy":0.0017,"dx":0.0017,"nx":28,"ny":28,"refTime":"2025-09-07T09:00:00:Z","depth":0,"parameterNumber":3,"parameterNumberName":"V-component_of_WINDS"},"data":[0,0,0,0,0,0,0,0,0,0,0,0,0,0,0,0,0,0,0,0,0,0,0,0,0,0,0,0,0,0,0,0,0,0,0,0,0,0,0,0,0,0,0,0,0,0,0,0,0,0,0,0,0,0,0,0,0,0,-1.1772,-1.1771,0,-1.1698,-1.1697,-1.1696,-1.1706,-1.1707,-1.1708,-1.1709,-1.1638,-1.1635,-1.1632,0,0,0,0,0,0,0,0,0,0,0,0,0,-1.1922,-1.192,-1.1772,-1.1771,-1.177,-1.1698,-1.1697,-1.1696,-1.1705,-1.1707,-1.1708,-1.171,-1.1639,-1.1635,-1.1632,0,0,0,0,0,0,0,0,0,0,0,0,0,-1.1854,-1.1919,-1.1772,-1.1766,-1.1765,-1.1698,-1.1697,-1.1696,-1.1705,-1.1707,-1.1709,-1.171,-1.164,-1.1636,-1.1631,-1.1568,0,0,-1.1617,-1.1615,0,0,0,0,0,0,0,0,-1.1858,-1.1848,-1.1768,-1.1766,-1.1765,-1.1713,-1.1724,-1.1653,-1.1705,-1.1728,-1.1709,-1.1711,-1.1662,-1.1655,-1.1638,-1.1564,-1.1561,-1.1617,-1.1614,-1.1612,-1.1611,0,0,0,0,0,0,0,-1.1862,-1.1852,-1.1743,-1.1766,-1.1765,-1.1767,-1.1759,-1.1711,-1.1686,-1.1726,-1.1726,-1.1717,-1.1661,-1.1642,-1.1636,-1.156,-1.1617,-1.1613,-1.161,-1.1609,-1.1427,-1.1425,0,0,0,0,0,0,-1.1868,-1.1855,-1.1745,-1.1741,-1.1816,-1.1763,-1.1754,-1.1728,-1.1686,-1.1682,-1.1716,-1.1718,-1.1649,-1.1641,-1.1634,-1.1554,-1.1612,-1.1608,-1.1606,-1.143,-1.1427,-1.1425,0,0,0,0,0,0,-1.1872,-1.1858,-1.1748,-1.1798,-1.1784,-1.1759,-1.1728,-1.1725,-1.1706,-1.1679,-1.1674,-1.1701,-1.165,-1.164,-1.1583,-1.1552,-1.1606,-1.1602,-1.1432,-1.1429,-1.1426,-1.1396,0,0,0,0,0,0,-1.1876,-1.186,-1.1835,-1.1797,-1.1781,-1.1698,-1.1727,-1.1722,-1.1698,-1.17,-1.1663,-1.1659,-1.1651,-1.1589,-1.1578,-1.1547,-1.1598,-1.1435,-1.1431,-1.1427,-1.1399,-1.1392,-1.1386,0,0,0,0,0,-1.1881,-1.1831,-1.1834,-1.182,-1.175,-1.1696,-1.1687,-1.1677,-1.1695,-1.167,-1.1652,-1.166,-1.1557,-1.1584,-1.1571,-1.1537,-1.1437,-1.1432,-1.1427,-1.1402,-1.1393,-1.1386,0,0,0,0,0,0,-1.1869,-1.1827,-1.1829,-1.1765,-1.1734,-1.1698,-1.1666,-1.1668,-1.1633,-1.1636,-1.1627,-1.1618,-1.156,-1.1543,-1.1574,-1.1472,-1.1499,-1.1492,-1.1485,-1.1476,-1.1469,-1.1474,-1.1595,0,0,0,0,0,-1.1858,-1.1817,-1.1783,-1.173,-1.1714,-1.1692,-1.1669,-1.1663,-1.1631,-1.1619,-1.1596,-1.1566,-1.1526,-1.15,-1.1463,-1.1397,-1.1388,-1.1368,-1.1361,-1.1355,-1.1349,-1.131,-1.1299,-1.1409,-1.1409,-1.1409,0,0,-1.1837,-1.1809,-1.1784,-1.1726,-1.1702,-1.1659,-1.1681,-1.1637,-1.1605,-1.1612,-1.1555,-1.1538,-1.1503,-1.144,-1.1412,-1.1425,-1.1316,-1.1349,-1.1345,-1.1341,-1.1304,-1.1293,-1.1284,-1.1406,-1.1406,-1.1407,0,0,-1.1776,-1.1751,-1.1702,-1.1676,-1.1636,-1.1622,-1.161,-1.1573,-1.156,-1.1503,-1.1507,-1.1469,-1.1402,-1.1376,-1.1354,-1.1278,-1.1284,-1.1267,-1.123,-1.1192,-1.1184,-1.1176,-1.1147,-1.1137,-1.126,-1.126,-1.126,0,-1.1754,-1.1689,-1.1678,-1.163,-1.1604,-1.1606,-1.1556,-1.1532,-1.1483,-1.1465,-1.148,-1.1393,-1.137,-1.13,-1.128,-1.1264,-1.1249,-1.1271,-1.1186,-1.1178,-1.117,-1.1142,-1.1132,-1.1258,-1.1259,-1.1259,-1.1259,0,-1.1664,-1.1618,-1.1584,-1.1533,-1.1503,-1.1455,-1.1436,-1.1407,-1.1404,-1.1387,-1.1328,-1.13,-1.1255,-1.1238,-1.1236,-1.1166,-1.1175,-1.1188,-1.1215,-1.1158,-1.1131,-1.1121,-1.1255,-1.1256,-1.1257,-1.1257,0,0,-1.1595,-1.1535,-1.1522,-1.1497,-1.1453,-1.1418,-1.1369,-1.1322,-1.1297,-1.1263,-1.1221,-1.1162,-1.1172,-1.1147,-1.1142,-1.1109,-1.1047,-1.1125,-1.1124,-1.111,-1.0966,-1.0955,-1.0943,-1.105,-1.1048,-1.1047,-1.0968,0,-1.1527,-1.1438,-1.1425,-1.1347,-1.1303,-1.1303,-1.126,-1.1228,-1.1211,-1.1172,-1.1155,-1.1111,-1.113,-1.1114,-1.1081,-1.1061,-1.1018,-1.1067,-1.1011,-1.1009,-1.1018,-1.093,-1.0919,-1.0846,-1.0958,-1.0956,-1.0955,0,-1.1437,-1.1396,-1.1313,-1.1271,-1.1252,-1.1214,-1.1168,-1.1131,-1.1094,-1.1084,-1.1053,-1.1051,-1.1,-1.1029,-1.0958,-1.0992,-1.0968,-1.0954,-1.0951,-1.0945,-1.0978,-1.0919,-1.0823,-1.0812,-1.0939,-1.094,-1.0942,0,-1.1392,-1.1317,-1.1256,-1.1236,-1.1185,-1.1158,-1.1136,-1.11,-1.1072,-1.1033,-1.1014,-1.097,-1.0946,-1.0912,-1.0898,-1.0921,-1.0826,-1.0855,-1.0816,-1.0816,-1.0796,-1.0797,-1.0693,-1.0783,-1.0783,-1.0783,-1.0783,0,-1.1317,-1.1266,-1.1234,-1.1197,-1.1139,-1.1124,-1.1067,-1.1046,-1.1014,-1.0972,-1.0971,-1.0932,-1.0916,-1.0875,-1.0863,-1.0804,-1.0794,-1.0784,-1.0782,-1.0783,-1.0784,-1.0767,-1.0771,-1.078,-1.0781,-1.0782,-1.0782,0,-1.1257,-1.1234,-1.1167,-1.1123,-1.1111,-1.107,-1.1033,-1.0996,-1.0978,-1.0926,-1.0913,-1.0885,-1.0836,-1.0818,-1.076,-1.0752,-1.0683,-1.0686,-1.0695,-1.0694,-1.0654,-1.0657,-1.0534,-1.0516,-1.062,-1.0619,-1.0618,0,-1.121,-1.117,-1.112,-1.1091,-1.1067,-1.1021,-1.099,-1.0973,-1.0942,-1.0894,-1.0863,-1.0814,-1.0773,-1.0695,-1.067,-1.0625,-1.0625,-1.0585,-1.0619,-1.062,-1.0622,-1.0624,-1.0619,-1.0579,-1.0578,-1.0577,-1.0576,0,-1.1129,-1.1118,-1.1074,-1.1024,-1.0987,-1.0948,-1.091,-1.0887,-1.0864,-1.0829,-1.0777,-1.0745,-1.0683,-1.0633,-1.0586,-1.0564,-1.0565,-1.0565,-1.0553,-1.0554,-1.056,-1.0554,-1.0676,-1.0568,-1.0569,-1.057,-1.057,-1.057,-1.1072,-1.1035,-1.0993,-1.0942,-1.0911,-1.0874,-1.0837,-1.0812,-1.0768,-1.0714,-1.0707,-1.0651,-1.0613,-1.0548,-1.0524,-1.048,-1.0491,-1.0475,-1.047,-1.0466,-1.0462,-1.0568,-1.0472,-1.0472,-1.0473,-1.0473,-1.0473,0,-1.0989,-1.096,-1.0914,-1.0859,-1.0818,-1.0821,-1.0778,-1.0745,-1.0694,-1.0657,-1.0616,-1.0555,-1.0506,-1.0476,-1.0427,-1.0397,-1.0397,-1.0385,-1.0386,-1.0381,-1.0456,-1.047,-1.0386,-1.0386,-1.0386,-1.0386,-1.0386,-1.0386,-1.0941,-1.0876,-1.086,-1.078,-1.0753,-1.0695,-1.067,-1.0636,-1.0606,-1.0537,-1.0495,-1.0475,-1.044,-1.0387,-1.0342,-1.0335,-1.0316,-1.0303,-1.0296,-1.0367,-1.0376,-1.0385,-1.0398,-1.03,-1.0299,-1.0224,-1.0224,-1.0223]}]]